Preview of NWS' New Version of Forecast
This preview is not operational and should not be used for support decisions.

Regional Weather Roundup (RWR)

Issued by National Weather Service (NWS)

                            
000
ASUS45 KBOI 162010
RWRID 

IDAHO REGIONAL WEATHER ROUNDUP
NATIONAL WEATHER SERVICE BOISE ID
200 PM MDT MON SEP 16 2019

NOTE: "FAIR" INDICATES FEW OR NO CLOUDS BELOW 12000 FEET
WITH NO SIGNIFICANT WEATHER AND/OR OBSTRUCTIONS TO VISIBILITY

IDZ012-014-162100-
SOUTHWEST IDAHO

  
CITY           SKY/WX    TMP DP  RH WIND       PRES   REMARKS
BOISE          PTSUNNY   71  46  40 NW14      29.73S                  
CALDWELL       PTSUNNY   74  46  36 NW7       29.74F                  
MOUNTAIN HOME  PTSUNNY   79  24  13 N6        29.70F                  
$$

IDZ016-017-162100-
SOUTHCENTRAL IDAHO

  
CITY           SKY/WX    TMP DP  RH WIND       PRES   REMARKS
BURLEY         MOSUNNY   78  28  16 NW8       29.75F                  
JEROME         PTSUNNY   78  32  18 N8        29.77F                  
TWIN FALLS     PTSUNNY   78  26  14 N12       29.77F                  
$$

IDZ019>023-162100-
SOUTHEAST IDAHO

  
CITY           SKY/WX    TMP DP  RH WIND       PRES   REMARKS
IDAHO FALLS    LGT RAIN  80  44  27 SW17G25   29.81F                  
POCATELLO      PTSUNNY   80  40  23 S21G32    29.79F                  
REXBURG        LGT RAIN  75  44  33 SW12      29.82F                  
$$

IDZ006-010-011-018-031-032-162100-
CENTRAL IDAHO MOUNTAINS

  
CITY           SKY/WX    TMP DP  RH WIND       PRES   REMARKS
MCCALL         PTSUNNY   66  25  21 SW13      29.81R                  
HAILEY         SUNNY     72  37  28 SE8       29.85F                  
STANLEY          N/A     69  19  15 S10G17    29.87F                  
SALMON         MOSUNNY   81  35  19 S13       29.67F HAZE             
CHALLIS        MOSUNNY   80  23  12 S18G24    29.73F                  
$$

IDZ002-004-006-007-026-162100-
NORTHERN IDAHO

  
CITY           SKY/WX    TMP DP  RH WIND       PRES   REMARKS
LEWISTON       CLOUDY    64  46  52 NW10      29.79F                  
LOWELL           N/A     69  49  48 VRB5      29.74R                  
COEUR D'ALENE  CLOUDY    58  46  64 W13       29.81R                  
MULLAN PASS    PTSUNNY   56  42  59 VRB3      29.83S                  
$$